Location: Bessat
(45.8735°N, 1.9924°E)
Time: 17:33:14
(UTC+00:00)

Terra - Pass Details

Date: 11 May 2021
Orbit: 701 x 703 km, 98.2° (Epoch: 22 June)

Event Time Altitude Azimuth Distance (km) Brightness Sun altitude
Exits shadow 19:53:54 - 93° (E) 2,683 4.3 -7.0°
Reaches altitude 10° 19:57:12 10° 60° (ENE) 2,178 4.1 -7.4°
Maximum altitude 19:57:37 10° 55° (NE) 2,172 4.2 -7.5°
Drops below altitude 10° 19:58:00 10° 50° (NE) 2,179 4.2 -7.6°
Sets 20:02:48 0° 7° (N) 3,105 5.6 -8.2°
